| time (UTC) | temp C | wind direction | speed KPH | gust KPH | rain 1hr cm | rain 24hr cm | rain mn cm | humidity % | barometer mb |
| 20260505190559 | 22 | 314 | 3.2 | 14.5 | 0.00 | 0.00 | 0.00 | 38 | 1009.1 |
| 20260505185824 | 22 | 290 | 3.2 | 14.5 | 0.00 | 0.00 | 0.00 | 37 | 1009.0 |
| 20260505185317 | 22 | 308 | 4.8 | 14.5 | 0.00 | 0.00 | 0.00 | 39 | 1009.1 |
| 20260505184811 | 22 | 348 | 3.2 | 12.9 | 0.00 | 0.00 | 0.00 | 36 | 1009.1 |
| 20260505184306 | 22 | 325 | 3.2 | 9.7 | 0.00 | 0.00 | 0.00 | 36 | 1009.3 |
| 20260505183759 | 22 | 323 | 3.2 | 9.7 | 0.00 | 0.00 | 0.00 | 39 | 1009.4 |
| 20260505183519 | 22 | 325 | 1.6 | 8.0 | 0.00 | 0.00 | 0.00 | 37 | 1009.3 |
| 20260505182747 | 22 | 317 | 1.6 | 8.0 | 0.00 | 0.00 | 0.00 | 38 | 1009.3 |
| 20260505182459 | 22 | 202 | 3.2 | 12.9 | 0.00 | 0.00 | 0.00 | 41 | 1009.4 |
| 20260505181735 | 21 | 354 | 3.2 | 12.9 | 0.00 | 0.00 | 0.00 | 37 | 1009.4 |
| 20260505181229 | 21 | 299 | 3.2 | 9.7 | 0.00 | 0.00 | 0.00 | 36 | 1009.4 |
| 20260505180725 | 21 | 339 | 1.6 | 9.7 | 0.00 | 0.00 | 0.00 | 37 | 1009.6 |
| 20260505180231 | 21 | 177 | 3.2 | 12.9 | 0.00 | 0.00 | 0.00 | 40 | 1009.6 |
| 20260505175936 | 21 | 272 | 3.2 | 12.9 | 0.00 | 0.00 | 0.00 | 40 | 1009.6 |
| 20260505175422 | 20 | 331 | 1.6 | 4.8 | 0.00 | 0.00 | 0.00 | 41 | 1009.7 |
| 20260505174700 | 20 | 348 | 1.6 | 11.3 | 0.00 | 0.00 | 0.00 | 40 | 1009.7 |
| 20260505174153 | 20 | 35 | 1.6 | 11.3 | 0.00 | 0.00 | 0.00 | 43 | 1009.7 |
| 20260505173648 | 19 | 124 | 3.2 | 9.7 | 0.00 | 0.00 | 0.00 | 38 | 1009.7 |
| 20260505173142 | 19 | 100 | 3.2 | 9.7 | 0.00 | 0.00 | 0.00 | 47 | 1009.6 |
| 20260505172636 | 18 | 148 | 3.2 | 8.0 | 0.00 | 0.00 | 0.00 | 40 | 1009.7 |
| 20260505172130 | 19 | 189 | 3.2 | 12.9 | 0.00 | 0.00 | 0.00 | 44 | 1009.7 |
| 20260505171624 | 18 | 320 | 3.2 | 12.9 | 0.00 | 0.00 | 0.00 | 44 | 1009.7 |
| 20260505171130 | 19 | 151 | 1.6 | 8.0 | 0.00 | 0.00 | 0.00 | 46 | 1009.6 |
| 20260505170612 | 20 | 262 | 1.6 | 8.0 | 0.00 | 0.00 | 0.00 | 41 | 1009.6 |
| 20260505170108 | 20 | 50 | 1.6 | 8.0 | 0.00 | 0.00 | 0.00 | 40 | 1009.4 |
| 20260505165600 | 19 | 201 | 3.2 | 11.3 | 0.00 | 0.00 | 0.00 | 45 | 1009.4 |
| 20260505165056 | 20 | 169 | 3.2 | 11.3 | 0.00 | 0.00 | 0.00 | 39 | 1009.6 |
| 20260505164548 | 20 | 162 | 3.2 | 14.5 | 0.00 | 0.00 | 0.00 | 41 | 1009.4 |
| 20260505164042 | 20 | 122 | 3.2 | 14.5 | 0.00 | 0.00 | 0.00 | 40 | 1009.4 |
| 20260505164027 | 20 | 193 | 3.2 | 9.7 | 0.00 | 0.00 | 0.00 | 38 | 1009.4 |
| 20260505163029 | 20 | 202 | 4.8 | 12.9 | 0.00 | 0.00 | 0.00 | 37 | 1009.4 |
| 20260505162745 | 20 | 208 | 6.4 | 16.1 | 0.00 | 0.00 | 0.00 | 40 | 1009.4 |
| 20260505162017 | 20 | 191 | 6.4 | 16.1 | 0.00 | 0.00 | 0.00 | 39 | 1009.4 |
| 20260505161735 | 19 | 198 | 4.8 | 12.9 | 0.00 | 0.00 | 0.00 | 40 | 1009.4 |
| 20260505161227 | 19 | 222 | 4.8 | 12.9 | 0.00 | 0.00 | 0.00 | 40 | 1009.2 |
| 20260505160459 | 18 | 216 | 4.8 | 12.9 | 0.00 | 0.00 | 0.00 | 44 | 1009.3 |
| 20260505152917 | 16 | 198 | 4.8 | 11.3 | 0.00 | 0.00 | 0.00 | 50 | 1008.9 |
| 20260505152411 | 16 | 179 | 4.8 | 12.9 | 0.00 | 0.00 | 0.00 | 52 | 1008.9 |
| 20260505151905 | 15 | 152 | 4.8 | 12.9 | 0.00 | 0.00 | 0.00 | 53 | 1008.9 |
| 20260505151400 | 15 | 186 | 4.8 | 14.5 | 0.00 | 0.00 | 0.00 | 56 | 1008.8 |
| 20260505150854 | 15 | 138 | 6.4 | 14.5 | 0.00 | 0.00 | 0.00 | 58 | 1008.8 |
| 20260505150347 | 14 | 183 | 6.4 | 9.7 | 0.00 | 0.00 | 0.00 | 59 | 1008.7 |
| 20260505140248 | 10 | 105 | 1.6 | 8.0 | 0.00 | 0.00 | 0.00 | 73 | 1008.4 |
| 20260505130123 | 10 | 92 | 0.0 | 3.2 | 0.00 | 0.00 | 0.00 | 70 | 1007.2 |
| 20260505124601 | 10 | 110 | 1.6 | 6.4 | 0.00 | 0.00 | 0.00 | 69 | 1007.1 |
| 20260505124108 | 10 | 98 | 1.6 | 4.8 | 0.00 | 0.00 | 0.00 | 69 | 1007.0 |
| 20260505123549 | 10 | 97 | 1.6 | 4.8 | 0.00 | 0.00 | 0.00 | 69 | 1006.6 |
| 20260505123314 | 10 | 97 | 0.0 | 4.8 | 0.00 | 0.00 | 0.00 | 69 | 1006.6 |
| 20260505122537 | 10 | 127 | 0.0 | 0.0 | 0.00 | 0.00 | 0.00 | 69 | 1006.5 |
| 20260505122032 | 10 | 127 | 0.0 | 0.0 | 0.00 | 0.00 | 0.00 | 68 | 1006.4 |
| 20260505121526 | 10 | 147 | 0.0 | 0.0 | 0.00 | 0.00 | 0.00 | 68 | 1006.4 |
| 20260505121020 | 10 | 100 | 0.0 | 0.0 | 0.00 | 0.00 | 0.00 | 68 | 1006.1 |
| 20260505120513 | 10 | 118 | 0.0 | 3.2 | 0.00 | 0.00 | 0.00 | 68 | 1006.0 |
| 20260505120008 | 10 | 147 | 1.6 | 3.2 | 0.00 | 0.00 | 0.00 | 68 | 1005.9 |
| 20260505115501 | 10 | 127 | 1.6 | 3.2 | 0.00 | 0.00 | 0.00 | 68 | 1005.9 |
| 20260505114955 | 10 | 127 | 1.6 | 4.8 | 0.00 | 0.00 | 0.00 | 67 | 1005.9 |
| 20260505114449 | 10 | 118 | 1.6 | 4.8 | 0.00 | 0.00 | 0.00 | 67 | 1005.8 |
| 20260505114211 | 10 | 119 | 0.0 | 3.2 | 0.00 | 0.00 | 0.00 | 66 | 1005.8 |
| 20260505113438 | 11 | 119 | 0.0 | 3.2 | 0.00 | 0.00 | 0.00 | 66 | 1005.8 |
| 20260505112932 | 11 | 119 | 0.0 | 3.2 | 0.00 | 0.00 | 0.00 | 66 | 1005.8 |
| 20260505112425 | 11 | 122 | 0.0 | 3.2 | 0.00 | 0.00 | 0.00 | 65 | 1005.6 |
| 20260505112402 | 11 | 122 | 0.0 | 3.2 | 0.00 | 0.00 | 0.00 | 65 | 1005.6 |
| 20260505111416 | 11 | 118 | 1.6 | 3.2 | 0.00 | 0.00 | 0.00 | 65 | 1005.4 |
| 20260505111358 | 11 | 118 | 1.6 | 3.2 | 0.00 | 0.00 | 0.00 | 64 | 1005.2 |
| 20260505110407 | 11 | 118 | 0.0 | 3.2 | 0.00 | 0.00 | 0.00 | 64 | 1005.2 |
| 20260505101807 | 12 | 119 | 0.0 | 4.8 | 0.00 | 0.00 | 0.00 | 58 | 1004.7 |
| 20260505101301 | 13 | 119 | 0.0 | 4.8 | 0.00 | 0.00 | 0.00 | 58 | 1004.6 |
| 20260505100756 | 13 | 166 | 0.0 | 1.6 | 0.00 | 0.00 | 0.00 | 56 | 1004.4 |
| 20260505100249 | 13 | 166 | 0.0 | 0.0 | 0.00 | 0.00 | 0.00 | 56 | 1004.1 |
| 20260505095743 | 13 | 166 | 0.0 | 0.0 | 0.00 | 0.00 | 0.00 | 55 | 1004.1 |
| 20260505095458 | 13 | 166 | 0.0 | 0.0 | 0.00 | 0.00 | 0.00 | 54 | 1004.1 |
| 20260505094732 | 13 | 166 | 0.0 | 1.6 | 0.00 | 0.00 | 0.00 | 54 | 1004.0 |
| 20260505094225 | 13 | 166 | 0.0 | 1.6 | 0.00 | 0.00 | 0.00 | 53 | 1004.0 |
| 20260505093719 | 13 | 166 | 0.0 | 4.8 | 0.00 | 0.00 | 0.00 | 53 | 1003.9 |
| 20260505093213 | 14 | 166 | 1.6 | 4.8 | 0.00 | 0.00 | 0.00 | 53 | 1003.9 |
| 20260505092707 | 14 | 163 | 1.6 | 4.8 | 0.00 | 0.00 | 0.00 | 53 | 1004.0 |
| 20260505092203 | 14 | 342 | 0.0 | 4.8 | 0.00 | 0.00 | 0.00 | 52 | 1003.8 |
| 20260505091655 | 14 | 342 | 0.0 | 3.2 | 0.00 | 0.00 | 0.00 | 51 | 1003.6 |
| 20260505091151 | 15 | 342 | 0.0 | 3.2 | 0.00 | 0.00 | 0.00 | 51 | 1003.5 |
| 20260505090644 | 15 | 331 | 0.0 | 4.8 | 0.00 | 0.00 | 0.00 | 51 | 1003.4 |
| 20260505090137 | 15 | 318 | 0.0 | 4.8 | 0.00 | 0.00 | 0.00 | 51 | 1003.4 |
| 20260505085631 | 15 | 314 | 1.6 | 4.8 | 0.00 | 0.00 | 0.00 | 51 | 1003.3 |
| 20260505085348 | 15 | 314 | 1.6 | 6.4 | 0.00 | 0.00 | 0.00 | 51 | 1003.3 |
| 20260505084619 | 15 | 317 | 1.6 | 6.4 | 0.00 | 0.00 | 0.00 | 50 | 1003.3 |
| 20260505084113 | 15 | 339 | 1.6 | 6.4 | 0.00 | 0.00 | 0.00 | 50 | 1003.3 |
| 20260505083607 | 15 | 297 | 0.0 | 6.4 | 0.00 | 0.00 | 0.00 | 50 | 1003.3 |
| 20260505083101 | 16 | 304 | 0.0 | 3.2 | 0.00 | 0.00 | 0.00 | 50 | 1003.2 |
| 20260505082555 | 16 | 304 | 1.6 | 4.8 | 0.00 | 0.00 | 0.00 | 49 | 1003.2 |
| 20260505082049 | 16 | 337 | 1.6 | 4.8 | 0.00 | 0.00 | 0.00 | 48 | 1003.2 |
| 20260505081544 | 16 | 324 | 0.0 | 3.2 | 0.00 | 0.00 | 0.00 | 48 | 1003.2 |
| 20260505081258 | 16 | 316 | 1.6 | 4.8 | 0.00 | 0.00 | 0.00 | 48 | 1003.2 |
| 20260505080758 | 16 | 316 | 3.2 | 4.8 | 0.00 | 0.00 | 0.00 | 47 | 1003.2 |
| 20260505080027 | 16 | 307 | 1.6 | 6.4 | 0.00 | 0.00 | 0.00 | 47 | 1003.2 |
| 20260505075519 | 16 | 332 | 3.2 | 8.0 | 0.00 | 0.00 | 0.00 | 47 | 1003.2 |
| 20260505075014 | 16 | 314 | 3.2 | 8.0 | 0.00 | 0.00 | 0.00 | 47 | 1003.2 |
| 20260505074507 | 16 | 325 | 3.2 | 8.0 | 0.00 | 0.00 | 0.00 | 47 | 1003.2 |
| 20260505074001 | 16 | 341 | 3.2 | 8.0 | 0.00 | 0.00 | 0.00 | 47 | 1003.1 |
| 20260505073718 | 16 | 354 | 4.8 | 11.3 | 0.00 | 0.00 | 0.00 | 48 | 1003.1 |
| 20260505072949 | 16 | 323 | 4.8 | 11.3 | 0.00 | 0.00 | 0.00 | 47 | 1003.2 |
| 20260505072446 | 16 | 346 | 3.2 | 6.4 | 0.00 | 0.00 | 0.00 | 48 | 1003.2 |
| 20260505071945 | 16 | 330 | 3.2 | 6.4 | 0.00 | 0.00 | 0.00 | 48 | 1003.1 |
| 20260505071445 | 16 | 327 | 1.6 | 6.4 | 0.00 | 0.00 | 0.00 | 47 | 1003.2 |
| 20260505071208 | 16 | 312 | 1.6 | 4.8 | 0.00 | 0.00 | 0.00 | 48 | 1003.2 |
| 20260505070704 | 16 | 314 | 1.6 | 4.8 | 0.00 | 0.00 | 0.00 | 47 | 1003.2 |
| 20260505065943 | 16 | 4 | 0.0 | 4.8 | 0.00 | 0.00 | 0.00 | 47 | 1003.1 |
| 20260505065445 | 16 | 339 | 0.0 | 4.8 | 0.00 | 0.00 | 0.00 | 47 | 1003.0 |
| 20260505064939 | 16 | 317 | 0.0 | 3.2 | 0.00 | 0.00 | 0.00 | 46 | 1002.8 |
| 20260505064439 | 16 | 317 | 1.6 | 3.2 | 0.00 | 0.00 | 0.00 | 46 | 1002.7 |
| 20260505063940 | 16 | 355 | 3.2 | 8.0 | 0.00 | 0.00 | 0.00 | 46 | 1002.7 |
| 20260505063658 | 17 | 352 | 4.8 | 12.9 | 0.00 | 0.00 | 0.00 | 45 | 1002.6 |
| 20260505062937 | 17 | 352 | 4.8 | 12.9 | 0.00 | 0.00 | 0.00 | 44 | 1002.6 |
| 20260505062437 | 17 | 5 | 3.2 | 8.0 | 0.00 | 0.00 | 0.00 | 44 | 1002.6 |
| 20260505061938 | 17 | 321 | 1.6 | 4.8 | 0.00 | 0.00 | 0.00 | 45 | 1002.6 |
| 20260505061438 | 17 | 341 | 0.0 | 4.8 | 0.00 | 0.00 | 0.00 | 44 | 1002.7 |
| 20260505060937 | 17 | 327 | 1.6 | 4.8 | 0.00 | 0.00 | 0.00 | 43 | 1002.7 |
| 20260505060438 | 18 | 258 | 0.0 | 3.2 | 0.00 | 0.00 | 0.00 | 42 | 1002.7 |
| 20260505055937 | 18 | 215 | 0.0 | 1.6 | 0.00 | 0.00 | 0.00 | 41 | 1002.7 |
| 20260505055656 | 18 | 215 | 1.6 | 3.2 | 0.00 | 0.00 | 0.00 | 41 | 1002.7 |
| 20260505054928 | 18 | 215 | 1.6 | 3.2 | 0.00 | 0.00 | 0.00 | 40 | 1002.6 |
| 20260505054646 | 19 | 215 | 0.0 | 3.2 | 0.00 | 0.00 | 0.00 | 39 | 1002.5 |
| 20260505053917 | 19 | 223 | 1.6 | 4.8 | 0.00 | 0.00 | 0.00 | 39 | 1002.5 |
| 20260505053410 | 19 | 223 | 0.0 | 4.8 | 0.00 | 0.00 | 0.00 | 38 | 1002.4 |
| 20260505052904 | 20 | 343 | 0.0 | 3.2 | 0.00 | 0.00 | 0.00 | 37 | 1002.3 |
| 20260505052358 | 20 | 277 | 0.0 | 8.0 | 0.00 | 0.00 | 0.00 | 37 | 1002.3 |
| 20260505051852 | 20 | 343 | 1.6 | 8.0 | 0.00 | 0.00 | 0.00 | 37 | 1002.3 |
| 20260505051346 | 20 | 325 | 3.2 | 9.7 | 0.00 | 0.00 | 0.00 | 36 | 1002.3 |
| 20260505050840 | 20 | 328 | 3.2 | 9.7 | 0.00 | 0.00 | 0.00 | 35 | 1002.3 |
| 20260505050335 | 20 | 316 | 3.2 | 8.0 | 0.00 | 0.00 | 0.00 | 35 | 1002.3 |
| 20260505041741 | 21 | 1 | 6.4 | 16.1 | 0.00 | 0.00 | 0.00 | 33 | 1002.3 |
| 20260505041234 | 21 | 351 | 6.4 | 14.5 | 0.00 | 0.00 | 0.00 | 33 | 1002.3 |
| 20260505040951 | 21 | 338 | 6.4 | 14.5 | 0.00 | 0.00 | 0.00 | 34 | 1002.3 |
| 20260505040223 | 21 | 323 | 4.8 | 11.3 | 0.00 | 0.00 | 0.00 | 34 | 1002.3 |
| 20260505035720 | 21 | 338 | 4.8 | 12.9 | 0.00 | 0.00 | 0.00 | 34 | 1002.3 |
| 20260505035220 | 21 | 337 | 4.8 | 12.9 | 0.00 | 0.00 | 0.00 | 34 | 1002.2 |
| 20260505034720 | 21 | 331 | 3.2 | 9.7 | 0.00 | 0.00 | 0.00 | 34 | 1002.3 |
| 20260505034217 | 21 | 359 | 3.2 | 9.7 | 0.00 | 0.00 | 0.00 | 34 | 1002.2 |
| 20260505033716 | 21 | 358 | 3.2 | 9.7 | 0.00 | 0.00 | 0.00 | 34 | 1002.2 |
| 20260505033216 | 21 | 329 | 3.2 | 8.0 | 0.00 | 0.00 | 0.00 | 35 | 1002.2 |
| 20260505032715 | 22 | 340 | 3.2 | 8.0 | 0.00 | 0.00 | 0.00 | 36 | 1002.2 |
| 20260505032438 | 22 | 354 | 1.6 | 8.0 | 0.00 | 0.00 | 0.00 | 36 | 1002.1 |
| 20260505031715 | 22 | 340 | 0.0 | 4.8 | 0.00 | 0.00 | 0.00 | 36 | 1002.1 |
| 20260505031213 | 23 | 333 | 0.0 | 0.0 | 0.00 | 0.00 | 0.00 | 35 | 1002.1 |
| 20260505030943 | 23 | 333 | 0.0 | 1.6 | 0.00 | 0.00 | 0.00 | 35 | 1001.9 |
| 20260505030213 | 23 | 333 | 0.0 | 3.2 | 0.00 | 0.00 | 0.00 | 35 | 1001.9 |
| 20260505025711 | 24 | 329 | 0.0 | 3.2 | 0.00 | 0.00 | 0.00 | 34 | 1001.8 |
| 20260505025209 | 24 | 329 | 1.6 | 4.8 | 0.00 | 0.00 | 0.00 | 32 | 1001.8 |
| 20260505024708 | 24 | 326 | 3.2 | 9.7 | 0.00 | 0.00 | 0.00 | 31 | 1001.7 |
| 20260505024206 | 25 | 326 | 4.8 | 9.7 | 0.00 | 0.00 | 0.00 | 31 | 1001.6 |
| 20260505023705 | 25 | 339 | 4.8 | 20.9 | 0.00 | 0.00 | 0.00 | 30 | 1001.6 |
| 20260505023206 | 25 | 324 | 6.4 | 20.9 | 0.00 | 0.00 | 0.00 | 30 | 1001.6 |
| 20260505022706 | 25 | 10 | 4.8 | 19.3 | 0.00 | 0.00 | 0.00 | 30 | 1001.4 |
| 20260505022159 | 25 | 329 | 4.8 | 11.3 | 0.00 | 0.00 | 0.00 | 30 | 1001.4 |
| 20260505021912 | 25 | 354 | 6.4 | 17.7 | 0.00 | 0.00 | 0.00 | 30 | 1001.4 |
| 20260505021148 | 25 | 19 | 8.0 | 24.1 | 0.00 | 0.00 | 0.00 | 29 | 1001.4 |
| 20260505020642 | 25 | 0 | 6.4 | 24.1 | 0.00 | 0.00 | 0.00 | 30 | 1001.3 |
| 20260505020135 | 25 | 341 | 6.4 | 16.1 | 0.00 | 0.00 | 0.00 | 30 | 1001.4 |
| 20260505015851 | 26 | 337 | 6.4 | 20.9 | 0.00 | 0.00 | 0.00 | 30 | 1001.4 |
| 20260505015124 | 26 | 343 | 6.4 | 20.9 | 0.00 | 0.00 | 0.00 | 29 | 1001.6 |
| 20260505014617 | 26 | 310 | 4.8 | 16.1 | 0.00 | 0.00 | 0.00 | 29 | 1001.6 |
| 20260505014111 | 26 | 337 | 6.4 | 14.5 | 0.00 | 0.00 | 0.00 | 29 | 1001.6 |
| 20260505013606 | 26 | 358 | 9.7 | 27.4 | 0.00 | 0.00 | 0.00 | 28 | 1001.6 |
| 20260505013101 | 26 | 329 | 9.7 | 27.4 | 0.00 | 0.00 | 0.00 | 28 | 1001.7 |
| 20260505012554 | 26 | 346 | 9.7 | 20.9 | 0.00 | 0.00 | 0.00 | 27 | 1001.7 |
| 20260505012311 | 26 | 316 | 8.0 | 20.9 | 0.00 | 0.00 | 0.00 | 27 | 1001.7 |
| 20260505011541 | 27 | 356 | 11.3 | 22.5 | 0.00 | 0.00 | 0.00 | 27 | 1001.7 |
| 20260505011035 | 27 | 344 | 12.9 | 29.0 | 0.00 | 0.00 | 0.00 | 26 | 1001.7 |
| 20260505010530 | 27 | 352 | 11.3 | 29.0 | 0.00 | 0.00 | 0.00 | 25 | 1001.7 |
| 20260505010024 | 27 | 330 | 9.7 | 24.1 | 0.00 | 0.00 | 0.00 | 25 | 1001.8 |
| 20260505005517 | 27 | 359 | 9.7 | 24.1 | 0.00 | 0.00 | 0.00 | 25 | 1001.8 |
| 20260505005011 | 27 | 327 | 8.0 | 20.9 | 0.00 | 0.00 | 0.00 | 25 | 1001.9 |
| 20260505004506 | 27 | 3 | 9.7 | 25.7 | 0.00 | 0.00 | 0.00 | 25 | 1002.0 |
| 20260505003959 | 27 | 4 | 11.3 | 25.7 | 0.00 | 0.00 | 0.00 | 24 | 1001.9 |
| 20260505003453 | 27 | 323 | 9.7 | 24.1 | 0.00 | 0.00 | 0.00 | 23 | 1002.2 |
| 20260505002947 | 27 | 35 | 9.7 | 22.5 | 0.00 | 0.00 | 0.00 | 23 | 1002.2 |
| 20260505002442 | 26 | 340 | 11.3 | 27.4 | 0.00 | 0.00 | 0.00 | 23 | 1002.3 |
| 20260505001935 | 26 | 334 | 11.3 | 27.4 | 0.00 | 0.00 | 0.00 | 22 | 1002.3 |
| 20260505001429 | 26 | 17 | 9.7 | 24.1 | 0.00 | 0.00 | 0.00 | 22 | 1002.3 |
| 20260505000923 | 26 | 300 | 9.7 | 25.7 | 0.00 | 0.00 | 0.00 | 22 | 1002.3 |
| 20260505000420 | 26 | 342 | 12.9 | 25.7 | 0.00 | 0.00 | 0.00 | 21 | 1002.3 |
| 20260504235919 | 26 | 358 | 12.9 | 25.7 | 0.00 | 0.00 | 0.00 | 22 | 1002.3 |
| 20260504235419 | 26 | 21 | 9.7 | 24.1 | 0.00 | 0.00 | 0.00 | 22 | 1002.3 |
| 20260504235145 | 26 | 323 | 9.7 | 22.5 | 0.00 | 0.00 | 0.00 | 22 | 1002.3 |
| 20260504234417 | 26 | 335 | 8.0 | 22.5 | 0.00 | 0.00 | 0.00 | 23 | 1002.4 |
| 20260504233917 | 26 | 316 | 8.0 | 17.7 | 0.00 | 0.00 | 0.00 | 24 | 1002.4 |
| 20260504233416 | 26 | 316 | 9.7 | 24.1 | 0.00 | 0.00 | 0.00 | 24 | 1002.5 |
| 20260504232916 | 26 | 23 | 8.0 | 24.1 | 0.00 | 0.00 | 0.00 | 24 | 1002.6 |
| 20260504232415 | 26 | 332 | 6.4 | 16.1 | 0.00 | 0.00 | 0.00 | 25 | 1002.5 |
| 20260504231913 | 26 | 321 | 8.0 | 22.5 | 0.00 | 0.00 | 0.00 | 26 | 1002.5 |
| 20260504231413 | 26 | 277 | 9.7 | 22.5 | 0.00 | 0.00 | 0.00 | 26 | 1002.6 |
| 20260504230913 | 26 | 356 | 8.0 | 24.1 | 0.00 | 0.00 | 0.00 | 26 | 1002.7 |
| 20260504230411 | 26 | 309 | 9.7 | 24.1 | 0.00 | 0.00 | 0.00 | 28 | 1002.8 |
| 20260504225911 | 26 | 326 | 8.0 | 24.1 | 0.00 | 0.00 | 0.00 | 27 | 1002.8 |
| 20260504225411 | 26 | 324 | 8.0 | 25.7 | 0.00 | 0.00 | 0.00 | 27 | 1002.8 |
| 20260504224911 | 26 | 329 | 11.3 | 25.7 | 0.00 | 0.00 | 0.00 | 27 | 1002.8 |
| 20260504224411 | 26 | 333 | 9.7 | 24.1 | 0.00 | 0.00 | 0.00 | 27 | 1002.8 |
| 20260504223911 | 26 | 323 | 8.0 | 22.5 | 0.00 | 0.00 | 0.00 | 28 | 1003.0 |
| 20260504223405 | 26 | 301 | 8.0 | 22.5 | 0.00 | 0.00 | 0.00 | 28 | 1003.1 |
| 20260504222859 | 26 | 349 | 6.4 | 20.9 | 0.00 | 0.00 | 0.00 | 29 | 1003.2 |
| 20260504222354 | 26 | 331 | 6.4 | 20.9 | 0.00 | 0.00 | 0.00 | 30 | 1003.3 |
| 20260504221847 | 26 | 314 | 6.4 | 19.3 | 0.00 | 0.00 | 0.00 | 29 | 1003.3 |
| 20260504221345 | 26 | 354 | 4.8 | 19.3 | 0.00 | 0.00 | 0.00 | 30 | 1003.4 |
| 20260504220846 | 26 | 351 | 6.4 | 16.1 | 0.00 | 0.00 | 0.00 | 30 | 1003.5 |
| 20260504220343 | 26 | 42 | 8.0 | 17.7 | 0.00 | 0.00 | 0.00 | 30 | 1003.6 |
| 20260504215845 | 26 | 323 | 6.4 | 17.7 | 0.00 | 0.00 | 0.00 | 30 | 1003.7 |
| 20260504215343 | 26 | 345 | 4.8 | 17.7 | 0.00 | 0.00 | 0.00 | 31 | 1003.8 |
| 20260504214844 | 25 | 318 | 6.4 | 17.7 | 0.00 | 0.00 | 0.00 | 31 | 1003.8 |
| 20260504214609 | 25 | 246 | 4.8 | 14.5 | 0.00 | 0.00 | 0.00 | 31 | 1003.8 |
| 20260504214101 | 25 | 71 | 6.4 | 17.7 | 0.00 | 0.00 | 0.00 | 31 | 1003.9 |
| 20260504213344 | 25 | 348 | 6.4 | 17.7 | 0.00 | 0.00 | 0.00 | 31 | 1004.0 |
| 20260504212843 | 25 | 0 | 4.8 | 16.1 | 0.00 | 0.00 | 0.00 | 31 | 1004.1 |
| 20260504212343 | 25 | 292 | 4.8 | 16.1 | 0.00 | 0.00 | 0.00 | 32 | 1004.4 |
| 20260504211844 | 25 | 300 | 4.8 | 14.5 | 0.00 | 0.00 | 0.00 | 33 | 1004.4 |
| 20260504211343 | 25 | 310 | 6.4 | 19.3 | 0.00 | 0.00 | 0.00 | 32 | 1004.4 |
| 20260504210846 | 25 | 314 | 4.8 | 19.3 | 0.00 | 0.00 | 0.00 | 32 | 1004.6 |
| 20260504210346 | 25 | 339 | 6.4 | 17.7 | 0.00 | 0.00 | 0.00 | 35 | 1004.6 |
| 20260504210106 | 25 | 317 | 6.4 | 17.7 | 0.00 | 0.00 | 0.00 | 33 | 1004.6 |
| 20260504205954 | 25 | 329 | 6.4 | 17.7 | 0.00 | 0.00 | 0.00 | 35 | 1004.6 |
| 20260504205548 | 25 | 338 | 9.7 | 17.7 | 0.00 | 0.00 | 0.00 | 34 | 1004.7 |
| 20260504204341 | 25 | 335 | 8.0 | 17.7 | 0.00 | 0.00 | 0.00 | 34 | 1004.8 |
| 20260504203841 | 25 | 358 | 8.0 | 20.9 | 0.00 | 0.00 | 0.00 | 35 | 1004.7 |
| 20260504203558 | 24 | 2 | 8.0 | 22.5 | 0.00 | 0.00 | 0.00 | 35 | 1004.9 |
| 20260504202841 | 25 | 344 | 4.8 | 22.5 | 0.00 | 0.00 | 0.00 | 36 | 1005.1 |
| 20260504202341 | 25 | 336 | 4.8 | 14.5 | 0.00 | 0.00 | 0.00 | 35 | 1005.0 |
| 20260504201841 | 24 | 303 | 4.8 | 14.5 | 0.00 | 0.00 | 0.00 | 36 | 1005.1 |
| 20260504201341 | 25 | 325 | 4.8 | 17.7 | 0.00 | 0.00 | 0.00 | 37 | 1005.2 |
| 20260504201103 | 24 | 352 | 6.4 | 20.9 | 0.00 | 0.00 | 0.00 | 35 | 1005.2 |
| 20260504200342 | 24 | 237 | 4.8 | 20.9 | 0.00 | 0.00 | 0.00 | 36 | 1005.3 |
| 20260504195842 | 24 | 336 | 6.4 | 20.9 | 0.00 | 0.00 | 0.00 | 36 | 1005.4 |
| 20260504195610 | 24 | 330 | 6.4 | 20.9 | 0.00 | 0.00 | 0.00 | 34 | 1005.4 |
| 20260504194842 | 24 | 323 | 3.2 | 14.5 | 0.00 | 0.00 | 0.00 | 35 | 1005.6 |
| 20260504194342 | 24 | 313 | 1.6 | 11.3 | 0.00 | 0.00 | 0.00 | 38 | 1005.6 |
| 20260504193842 | 24 | 301 | 1.6 | 8.0 | 0.00 | 0.00 | 0.00 | 37 | 1005.7 |
| 20260504193342 | 24 | 277 | 3.2 | 16.1 | 0.00 | 0.00 | 0.00 | 36 | 1005.7 |
| 20260504192842 | 23 | 289 | 4.8 | 16.1 | 0.00 | 0.00 | 0.00 | 36 | 1005.7 |
| 20260504192343 | 23 | 329 | 4.8 | 11.3 | 0.00 | 0.00 | 0.00 | 37 | 1005.8 |
| 20260504191842 | 23 | 298 | 4.8 | 11.3 | 0.00 | 0.00 | 0.00 | 37 | 1005.9 |
| 20260504191338 | 23 | 313 | 4.8 | 14.5 | 0.00 | 0.00 | 0.00 | 36 | 1006.0 |
| 20260504190830 | 23 | 348 | 6.4 | 20.9 | 0.00 | 0.00 | 0.00 | 37 | 1006.1 |